This is the latest recevied weather packets stored in our database for station/object KB1RMA-4. If no packets are shown the sender has not sent any weather packets the latest 10 day(s).
| Time | Temp. | Humidity | Pressure | Rain* | Wind** | Luminosity | Snow |
|---|---|---|---|---|---|---|---|
| 1788091058 | 18.89° C | 67% | 1020.3 hPa | 0 mm | - | 65 W/m² | - |
| 1788090753 | 18.33° C | 68% | 1020.3 hPa | 0 mm | - | 78 W/m² | - |
| 1788090450 | 18.33° C | 69% | 1020.3 hPa | 0 mm | - | 61 W/m² | - |
| 1788090150 | 17.78° C | 70% | 1020.3 hPa | 0 mm | - | 60 W/m² | - |
| 1788089846 | 17.22° C | 71% | 1020.3 hPa | 0 mm | - | 60 W/m² | - |
| 1788089545 | 16.67° C | 73% | 1020.3 hPa | 0 mm | - | 58 W/m² | - |
| 1788089241 | 16.67° C | 74% | 1020.2 hPa | 0 mm | - | 55 W/m² | - |
| 1788088937 | 16.67° C | 75% | 1020.1 hPa | 0 mm | - | 53 W/m² | - |
| 1788088634 | 16.11° C | 75% | 1020.1 hPa | 0 mm | - | 46 W/m² | - |
| 1788088329 | 16.11° C | 76% | 1020.3 hPa | 0 mm | - | 34 W/m² | - |
| 1788088029 | 16.11° C | 76% | 1020.1 hPa | 0 mm | - | 29 W/m² | - |
| 1788087725 | 16.11° C | 76% | 1020.2 hPa | 0 mm | - | 32 W/m² | - |
| 1788087424 | 15.56° C | 76% | 1020.3 hPa | 0 mm | - | 31 W/m² | - |
| 1788087120 | 15.56° C | 76% | 1020 hPa | 0 mm | - | 30 W/m² | - |
| 1788086817 | 15.56° C | 76% | 1020.3 hPa | 0 mm | - | 27 W/m² | - |
| 1788086514 | 15.56° C | 76% | 1020 hPa | 0 mm | - | 22 W/m² | - |
| 1788086212 | 15.56° C | 76% | 1020.3 hPa | 0 mm | - | 19 W/m² | - |
| 1788085908 | 15.56° C | 76% | 1020 hPa | 0 mm | - | 17 W/m² | - |
| 1788085606 | 15.56° C | 76% | 1020 hPa | 0 mm | - | 14 W/m² | - |
| 1788085302 | 15.56° C | 76% | 1020.4 hPa | 0 mm | - | 10 W/m² | - |
| 1788084998 | 15.56° C | 76% | 1020.4 hPa | 0 mm | - | 5 W/m² | - |
| 1788084698 | 16.11° C | 76% | 1020 hPa | 0 mm | - | 4 W/m² | - |
| 1788084393 | 16.11° C | 75% | 1020.3 hPa | 0 mm | - | 1 W/m² | - |
| 1788084093 | 16.11° C | 75% | 1020 hPa | 0 mm | - | 0 W/m² | - |
| 1788083791 | 16.11° C | 75% | 1020 hPa | 0 mm | - | 0 W/m² | - |
* Rain latest hour (hover to see other rain measurements)
** Current wind speed in m/s (hover to see current wind gust speed)